• In Italy
  • List of Countries
  • For 7 days
  • Water Temperature
  • Satellite Maps
  • Weather Map
  • Weather Widgets
  • user-avatar
    Login

    Hourly Weather Asadabad

    Today, 20 September, Thursday

    Time Temperature Precipitation Wind Pressure Humidity
    00:00 +22°C° 0 mm 1 mps 657 mmHg 28%
    01:00 +22°C° 0 mm 1 mps 657 mmHg 29%
    02:00 +21°C° 0 mm 1 mps 656 mmHg 29%
    03:00 +21°C° 0 mm 1 mps 656 mmHg 29%
    04:00 +20°C° 0 mm 2 mps 656 mmHg 30%
    05:00 +20°C° 0 mm 2 mps 656 mmHg 30%
    06:00 +23°C° 0 mm 2 mps 657 mmHg 27%
    07:00 +25°C° 0 mm 1 mps 658 mmHg 24%
    08:00 +26°C° 0 mm 1 mps 659 mmHg 22%
    09:00 +28°C° 0 mm 1 mps 659 mmHg 20%
    10:00 +29°C° 0 mm 2 mps 659 mmHg 18%
    11:00 +30°C° 0 mm 2 mps 659 mmHg 16%
    12:00 +31°C° 0 mm 2 mps 659 mmHg 16%
    13:00 +31°C° 0 mm 3 mps 659 mmHg 15%
    14:00 +33°C° 0 mm 3 mps 659 mmHg 15%
    15:00 +31°C° 0 mm 3 mps 659 mmHg 16%
    16:00 +31°C° 0 mm 2 mps 659 mmHg 17%
    17:00 +31°C° 0 mm 2 mps 659 mmHg 17%
    18:00 +28°C° 0 mm 2 mps 659 mmHg 22%
    19:00 +26°C° 0 mm 1 mps 658 mmHg 26%
    20:00 +22°C° 0 mm 0 mps 658 mmHg 30%
    21:00 +23°C° 0 mm 1 mps 658 mmHg 29%
    22:00 +23°C° 0 mm 1 mps 658 mmHg 29%
    23:00 +23°C° 0 mm 1 mps 658 mmHg 28%

    Tomorrow, 21 September, Friday

    Time Temperature Precipitation Wind Pressure Humidity
    00:00 +21°C° 0 mm 2 mps 658 mmHg 29%
    01:00 +21°C° 0 mm 2 mps 658 mmHg 29%
    02:00 +21°C° 0 mm 2 mps 658 mmHg 30%
    03:00 +20°C° 0 mm 2 mps 658 mmHg 30%
    04:00 +20°C° 0 mm 2 mps 658 mmHg 30%
    05:00 +20°C° 0 mm 2 mps 658 mmHg 30%
    06:00 +23°C° 0 mm 2 mps 659 mmHg 28%
    07:00 +24°C° 0 mm 2 mps 660 mmHg 25%
    08:00 +26°C° 0 mm 2 mps 660 mmHg 23%
    09:00 +27°C° 0 mm 2 mps 660 mmHg 22%
    10:00 +28°C° 0 mm 2 mps 660 mmHg 21%
    11:00 +29°C° 0 mm 2 mps 661 mmHg 21%
    12:00 +30°C° 0 mm 2 mps 660 mmHg 21%
    13:00 +31°C° 0 mm 2 mps 660 mmHg 20%
    14:00 +31°C° 0 mm 3 mps 660 mmHg 20%
    15:00 +31°C° 0 mm 3 mps 660 mmHg 21%
    16:00 +31°C° 0 mm 3 mps 660 mmHg 22%
    17:00 +30°C° 0 mm 3 mps 660 mmHg 23%
    18:00 +28°C° 0 mm 2 mps 659 mmHg 29%
    19:00 +26°C° 0 mm 1 mps 659 mmHg 34%
    20:00 +24°C° 0 mm 1 mps 659 mmHg 40%
    21:00 +24°C° 0.1 mm 1 mps 659 mmHg 40%
    22:00 +23°C° 0.1 mm 1 mps 659 mmHg 39%
    23:00 +23°C° 0.1 mm 2 mps 660 mmHg 39%

    Day after tomorrow, 22 September, Saturday

    Time Temperature Precipitation Wind Pressure Humidity
    00:00 +23°C° 0.2 mm 2 mps 660 mmHg 40%
    01:00 +21°C° 0.2 mm 2 mps 659 mmHg 40%
    02:00 +21°C° 0.2 mm 2 mps 659 mmHg 41%
    03:00 +21°C° 0.3 mm 2 mps 659 mmHg 41%
    04:00 +20°C° 0.3 mm 2 mps 659 mmHg 41%
    05:00 +20°C° 0.3 mm 2 mps 659 mmHg 41%
    06:00 +23°C° 0 mm 2 mps 660 mmHg 37%
    07:00 +24°C° 0 mm 2 mps 660 mmHg 34%
    08:00 +25°C° 0 mm 1 mps 661 mmHg 30%
    09:00 +27°C° 0 mm 2 mps 661 mmHg 29%
    10:00 +28°C° 0 mm 2 mps 661 mmHg 28%
    11:00 +29°C° 0 mm 2 mps 661 mmHg 26%
    12:00 +29°C° 0 mm 2 mps 661 mmHg 26%
    13:00 +30°C° 0 mm 2 mps 660 mmHg 25%
    14:00 +31°C° 0 mm 3 mps 660 mmHg 24%
    15:00 +30°C° 0 mm 3 mps 660 mmHg 25%
    16:00 +30°C° 0 mm 3 mps 660 mmHg 26%
    17:00 +30°C° 0 mm 3 mps 659 mmHg 26%
    18:00 +28°C° 0 mm 2 mps 659 mmHg 32%
    19:00 +26°C° 0 mm 1 mps 659 mmHg 37%
    20:00 +22°C° 0 mm 0 mps 659 mmHg 43%
    21:00 +23°C° 0 mm 1 mps 659 mmHg 43%
    22:00 +23°C° 0 mm 1 mps 659 mmHg 43%
    23:00 +23°C° 0 mm 1 mps 660 mmHg 44%

    23 September, Sunday

    Time Temperature Precipitation Wind Pressure Humidity
    00:00 +21°C° 0.3 mm 2 mps 660 mmHg 44%
    01:00 +21°C° 0.3 mm 2 mps 660 mmHg 45%
    02:00 +21°C° 0.3 mm 2 mps 660 mmHg 46%
    03:00 +20°C° 0.3 mm 2 mps 659 mmHg 49%
    04:00 +20°C° 0.3 mm 1 mps 659 mmHg 51%
    05:00 +20°C° 0.3 mm 1 mps 659 mmHg 54%
    06:00 +21°C° 0.5 mm 1 mps 660 mmHg 51%
    07:00 +22°C° 0.5 mm 1 mps 660 mmHg 48%
    08:00 +23°C° 0.5 mm 1 mps 661 mmHg 45%
    09:00 +24°C° 0.1 mm 1 mps 661 mmHg 44%
    10:00 +26°C° 0.1 mm 2 mps 661 mmHg 43%
    11:00 +27°C° 0.1 mm 2 mps 661 mmHg 41%
    12:00 +27°C° 0 mm 2 mps 661 mmHg 40%
    13:00 +28°C° 0 mm 3 mps 660 mmHg 39%
    14:00 +29°C° 0 mm 3 mps 660 mmHg 37%
    15:00 +28°C° 0.1 mm 3 mps 660 mmHg 39%
    16:00 +28°C° 0.1 mm 3 mps 659 mmHg 41%
    17:00 +28°C° 0.1 mm 3 mps 659 mmHg 43%
    18:00 +26°C° 0.3 mm 2 mps 659 mmHg 51%
    19:00 +24°C° 0.3 mm 1 mps 659 mmHg 58%
    20:00 +21°C° 0.3 mm 0 mps 659 mmHg 66%
    21:00 +22°C° 0.4 mm 1 mps 659 mmHg 66%
    22:00 +22°C° 0.4 mm 1 mps 659 mmHg 66%
    23:00 +21°C° 0.4 mm 1 mps 659 mmHg 67%

    24 September, Monday

    Time Temperature Precipitation Wind Pressure Humidity
    00:00 +21°C° 0.5 mm 1 mps 659 mmHg 67%
    01:00 +21°C° 0.5 mm 1 mps 658 mmHg 66%
    02:00 +20°C° 0.5 mm 1 mps 658 mmHg 66%
    03:00 +20°C° 0.1 mm 1 mps 658 mmHg 66%
    04:00 +20°C° 0.1 mm 1 mps 658 mmHg 65%
    05:00 +19°C° 0.1 mm 1 mps 657 mmHg 64%
    06:00 +21°C° 0 mm 1 mps 658 mmHg 59%
    07:00 +22°C° 0 mm 1 mps 658 mmHg 53%
    08:00 +23°C° 0 mm 1 mps 659 mmHg 48%
    09:00 +25°C° 0 mm 1 mps 659 mmHg 45%
    10:00 +26°C° 0 mm 2 mps 659 mmHg 41%
    11:00 +27°C° 0 mm 2 mps 659 mmHg 38%
    12:00 +28°C° 0.1 mm 2 mps 659 mmHg 36%
    13:00 +28°C° 0.1 mm 2 mps 659 mmHg 34%
    14:00 +29°C° 0.1 mm 3 mps 658 mmHg 32%
    15:00 +29°C° 0.2 mm 3 mps 658 mmHg 34%
    16:00 +28°C° 0.2 mm 2 mps 658 mmHg 35%
    17:00 +28°C° 0.2 mm 2 mps 658 mmHg 36%
    18:00 +26°C° 0.1 mm 2 mps 658 mmHg 41%
    19:00 +25°C° 0.1 mm 1 mps 658 mmHg 47%
    20:00 +23°C° 0.1 mm 1 mps 658 mmHg 53%
    21:00 +23°C° 0 mm 1 mps 658 mmHg 53%
    22:00 +22°C° 0 mm 1 mps 658 mmHg 53%
    23:00 +22°C° 0 mm 1 mps 658 mmHg 53%

    25 September, Tuesday

    Time Temperature Precipitation Wind Pressure Humidity
    00:00 +21°C° 0 mm 1 mps 657 mmHg 52%
    01:00 +21°C° 0 mm 1 mps 657 mmHg 51%
    02:00 +21°C° 0 mm 1 mps 657 mmHg 51%
    03:00 +20°C° 0 mm 1 mps 657 mmHg 49%
    04:00 +19°C° 0 mm 2 mps 657 mmHg 48%
    05:00 +19°C° 0 mm 2 mps 657 mmHg 46%
    06:00 +22°C° 0 mm 1 mps 657 mmHg 42%
    07:00 +23°C° 0 mm 1 mps 658 mmHg 38%
    08:00 +25°C° 0 mm 1 mps 658 mmHg 33%
    09:00 +26°C° 0 mm 1 mps 659 mmHg 31%
    10:00 +27°C° 0 mm 2 mps 659 mmHg 29%
    11:00 +28°C° 0 mm 2 mps 659 mmHg 28%
    12:00 +29°C° 0 mm 2 mps 659 mmHg 27%
    13:00 +30°C° 0 mm 2 mps 658 mmHg 26%
    14:00 +30°C° 0 mm 3 mps 658 mmHg 25%
    15:00 +30°C° 0.1 mm 2 mps 658 mmHg 27%
    16:00 +29°C° 0.1 mm 2 mps 658 mmHg 28%
    17:00 +29°C° 0.1 mm 2 mps 657 mmHg 29%
    18:00 +27°C° 0 mm 1 mps 657 mmHg 33%
    19:00 +25°C° 0 mm 1 mps 657 mmHg 38%
    20:00 +23°C° 0 mm 1 mps 657 mmHg 43%
    21:00 +23°C° 0 mm 1 mps 657 mmHg 42%
    22:00 +23°C° 0 mm 1 mps 657 mmHg 41%
    23:00 +22°C° 0 mm 1 mps 657 mmHg 40%
    Show more